Location: Kuppenheim
(48.8299°N, 8.2568°E)
Time: 08:10:45
(UTC+00:00)

N. Korean satellite - Pass Details

Date: 28 November 2022
Orbit: 407 x 442 km, 97.3° (Epoch: 04 February)

Event Time Altitude Azimuth Distance (km) Brightness Sun altitude
Rises 16:21:23 0° 187° (S) 2,422 10.6 -7.6°
Reaches altitude 10° 16:23:30 10° 197° (SSW) 1,569 9.8 -7.9°
Maximum altitude 16:26:35 33° 263° (W) 794 8.5 -8.4°
Drops below altitude 10° 16:29:44 10° 329° (NNW) 1,614 9.3 -8.9°
Sets 16:31:58 0° 340° (NNW) 2,505 10.2 -9.2°
